RADUGA 32 1 23448U 94087A 12033.52739407 -.00000139 00000-0 10000-3 0 4662 2 23448 012.1817 041.2909 0004140 128.8176 231.2773 01.00266221 80317 RADUGA 1-4 1 25642U 99010A 12033.51955146 -.00000270 +00000-0 +10000-3 0 05577 2 25642 011.0655 055.5346 0002532 131.2043 228.8789 01.00204528047358 RADUGA 1-5 1 26477U 00049A 12033.62068928 -.00000201 +00000-0 +10000-3 0 02945 2 26477 008.6862 055.2390 0003392 323.3548 061.9625 01.00336581041862 RADUGA 1-6 1 26936U 01045A 12032.72211426 -.00000095 +00000-0 +10000-3 0 02845 2 26936 008.0382 059.9713 0016585 055.7783 304.4414 00.97744682037279 RADUGA 1-7 1 28194U 04010A 12033.73454212 .00000150 00000-0 10000-3 0 5497 2 28194 006.1110 069.0930 0000598 313.0039 047.0535 01.00209211 28777 RADUGA 1M-1 1 32373U 07058A 12033.60362466 -.00000035 00000-0 10000-3 0 2042 2 32373 000.0223 202.5378 0002561 091.0578 125.8821 01.00272934 16101